Flag for Brazil Weather past 2 weeks in Foz do Iguaçu, Paraná, Brazil

Now
66 °F

Light rain. Fog.


Feels Like: 66 °F
Forecast: 63 / 68 °F
Wind: 14 mph from North

Location: Foz Do Iguacu Aeroporto

Current Time: Jul 7, 2015 at 2:54:11 PM

Latest Report: Jul 7, 2015 at 2:00 PM


Visibility: 3 mi

Pressure: 29.92 "Hg

Humidity: 94%

Dew point: 64 °F

Location of Foz do IguaçuLocation

Historic Weather in Foz do Iguaçu — Graph

°F

Foz do Iguaçu temperature yesterday

Maximum temperature yesterday: 64 °F (at 1:00 PM)
Minimum temperature yesterday: 54 °F (at 1:00 AM)
Average temperature yesterday: 60 °F

Past Weeks' High & Low Weather Summary

 TemperatureHumidityPressure
High81 °F (Jun 22, 2:00 PM)100% (Jun 22, 11:00 PM)30.36 "Hg (Jun 22, 11:00 PM)
Low43 °F (Jul 5, 6:00 AM)32% (Jul 7, 10:00 AM)29.86 "Hg (Jun 29, 4:00 PM)
Average63 °F83%30.10 "Hg
* Reported Jun 22 1:00 PM — Jul 7 1:00 PM, Foz do Iguaçu, Weather by CustomWeather, © 2015

Note: Actual official high and low records may vary slightly from our data, if they occured in-between our weather recording intervals... More about our weather records

Advertising

Foz do Iguaçu weather history for previous 24 hours

 ConditionsComfort  
Time TempWeatherWind HumidityBarometerVisibility
1:00 PM
Tue, Jul 7
66 °FLight rain. Partly sunny.10 mph94%N/A4 mi
12:00 PM64 °FLow clouds.12 mph100%29.95 "Hg5 mi
11:00 AM64 °FLow clouds.7 mph100%29.95 "Hg5 mi
10:00 AM64 °FThunderstorms. Partly sunny.8 mph32%N/A5 mi
9:00 AM64 °FPartly sunny.9 mph94%29.95 "Hg4 mi
8:00 AM64 °FLow clouds.9 mph94%29.92 "Hg4 mi
7:00 AM64 °FPartly sunny.9 mph94%29.92 "HgN/A
6:00 AM64 °FPassing clouds.10 mph94%29.92 "HgN/A
5:00 AM66 °FPartly cloudy.9 mph88%29.92 "HgN/A
4:00 AM64 °FPartly cloudy.5 mph94%29.95 "HgN/A
3:00 AM63 °FPassing clouds.No wind100%29.92 "HgN/A
2:00 AM64 °FPassing clouds.5 mph94%29.95 "HgN/A
1:00 AM63 °FPassing clouds.3 mph94%29.95 "HgN/A
12:00 AM63 °FPassing clouds.3 mph94%29.98 "HgN/A
11:00 PM
Mon, Jul 6
63 °FPassing clouds.3 mph94%29.95 "HgN/A
10:00 PM64 °FPassing clouds.3 mph88%29.95 "HgN/A
9:00 PM64 °FPassing clouds.7 mph88%29.95 "HgN/A
8:00 PM64 °FPassing clouds.6 mph88%29.95 "HgN/A
7:00 PM64 °FPassing clouds.5 mph88%29.92 "HgN/A
6:00 PM63 °FOvercast.7 mph94%29.95 "HgN/A
5:00 PM64 °FOvercast.8 mph88%29.92 "HgN/A
4:00 PM64 °FOvercast.7 mph88%29.92 "HgN/A
3:00 PM63 °FThunderstorms. Partly sunny.7 mph94%29.95 "HgN/A
2:00 PM64 °FThunderstorms. Partly sunny.9 mph78%29.98 "HgN/A
Weather by CustomWeather, © 2015

See weather overviewHow to use our weather pages